When you browse on this site, cookies collect data to enhance your experience and personalize the content and advertising you see.
Visit our Privacy Policy to learn more. By continuing to use the site, you agree to this use of cookies and data.
  • In Latvia
  • List of Countries
  • For 7 days
  • Water Temperature
  • Weather Map
  • Weather Widgets
  • user-avatar
    Login

    Hourly Weather Kingston

    Today, 18 October, Friday

    Time Temperature Precipitation Wind Pressure Humidity
    00:00 +23°C° 0 mm 1 mps 705 mmHg 91%
    01:00 +22°C° 0 mm 1 mps 705 mmHg 91%
    02:00 +22°C° 0 mm 1 mps 705 mmHg 91%
    03:00 +22°C° 0 mm 1 mps 704 mmHg 91%
    04:00 +22°C° 0 mm 1 mps 704 mmHg 91%
    05:00 +22°C° 0 mm 1 mps 705 mmHg 90%
    06:00 +23°C° 0 mm 1 mps 705 mmHg 89%
    07:00 +23°C° 0 mm 1 mps 705 mmHg 88%
    08:00 +25°C° 0 mm 1 mps 706 mmHg 80%
    09:00 +27°C° 0 mm 1 mps 706 mmHg 71%
    10:00 +29°C° 0 mm 2 mps 707 mmHg 63%
    11:00 +29°C° 0.2 mm 2 mps 706 mmHg 64%
    12:00 +29°C° 0.2 mm 2 mps 706 mmHg 66%
    13:00 +28°C° 0.2 mm 3 mps 705 mmHg 68%
    14:00 +28°C° 0.6 mm 2 mps 705 mmHg 71%
    15:00 +27°C° 0.6 mm 2 mps 705 mmHg 73%
    16:00 +27°C° 0.6 mm 2 mps 704 mmHg 76%
    17:00 +26°C° 0.1 mm 2 mps 705 mmHg 80%
    18:00 +25°C° 0.1 mm 1 mps 705 mmHg 85%
    19:00 +23°C° 0.1 mm 1 mps 705 mmHg 89%
    20:00 +23°C° 0 mm 1 mps 705 mmHg 90%
    21:00 +23°C° 0 mm 1 mps 705 mmHg 90%
    22:00 +23°C° 0 mm 1 mps 706 mmHg 90%
    23:00 +22°C° 0 mm 1 mps 705 mmHg 91%

    Tomorrow, 19 October, Saturday

    Time Temperature Precipitation Wind Pressure Humidity
    00:00 +22°C° 0 mm 1 mps 705 mmHg 91%
    01:00 +22°C° 0 mm 1 mps 705 mmHg 91%
    02:00 +22°C° 0 mm 1 mps 705 mmHg 90%
    03:00 +21°C° 0 mm 1 mps 704 mmHg 90%
    04:00 +21°C° 0 mm 1 mps 704 mmHg 89%
    05:00 +22°C° 0 mm 1 mps 704 mmHg 89%
    06:00 +22°C° 0 mm 1 mps 704 mmHg 88%
    07:00 +22°C° 0 mm 1 mps 705 mmHg 87%
    08:00 +24°C° 0 mm 2 mps 705 mmHg 78%
    09:00 +27°C° 0 mm 2 mps 706 mmHg 68%
    10:00 +29°C° 0 mm 2 mps 706 mmHg 58%
    11:00 +29°C° 0 mm 3 mps 706 mmHg 58%
    12:00 +29°C° 0 mm 3 mps 706 mmHg 58%
    13:00 +30°C° 0 mm 3 mps 705 mmHg 58%
    14:00 +29°C° 0 mm 3 mps 705 mmHg 63%
    15:00 +28°C° 0 mm 3 mps 705 mmHg 68%
    16:00 +27°C° 0 mm 2 mps 704 mmHg 73%
    17:00 +26°C° 0.2 mm 2 mps 704 mmHg 79%
    18:00 +25°C° 0.2 mm 2 mps 705 mmHg 84%
    19:00 +24°C° 0.2 mm 1 mps 705 mmHg 90%
    20:00 +23°C° 0.1 mm 1 mps 705 mmHg 90%
    21:00 +23°C° 0.1 mm 1 mps 705 mmHg 91%
    22:00 +23°C° 0.1 mm 1 mps 706 mmHg 91%
    23:00 +23°C° 0 mm 1 mps 705 mmHg 91%

    Day after tomorrow, 20 October, Sunday

    Time Temperature Precipitation Wind Pressure Humidity
    00:00 +22°C° 0 mm 1 mps 705 mmHg 91%
    01:00 +22°C° 0 mm 1 mps 705 mmHg 91%
    02:00 +22°C° 0 mm 1 mps 705 mmHg 90%
    03:00 +21°C° 0 mm 1 mps 704 mmHg 89%
    04:00 +21°C° 0 mm 1 mps 704 mmHg 88%
    05:00 +22°C° 0 mm 1 mps 704 mmHg 87%
    06:00 +22°C° 0 mm 1 mps 705 mmHg 86%
    07:00 +22°C° 0 mm 1 mps 705 mmHg 84%
    08:00 +25°C° 0 mm 1 mps 706 mmHg 76%
    09:00 +27°C° 0 mm 1 mps 706 mmHg 67%
    10:00 +29°C° 0 mm 1 mps 707 mmHg 58%
    11:00 +29°C° 0 mm 2 mps 707 mmHg 58%
    12:00 +30°C° 0 mm 2 mps 706 mmHg 58%
    13:00 +30°C° 0 mm 3 mps 706 mmHg 58%
    14:00 +29°C° 0.2 mm 3 mps 706 mmHg 62%
    15:00 +28°C° 0.2 mm 2 mps 705 mmHg 66%
    16:00 +28°C° 0.2 mm 2 mps 705 mmHg 70%
    17:00 +26°C° 0.1 mm 2 mps 705 mmHg 76%
    18:00 +25°C° 0.1 mm 2 mps 705 mmHg 81%
    19:00 +23°C° 0.1 mm 1 mps 705 mmHg 87%
    20:00 +23°C° 0 mm 1 mps 705 mmHg 87%
    21:00 +23°C° 0 mm 1 mps 705 mmHg 87%
    22:00 +23°C° 0 mm 1 mps 706 mmHg 87%
    23:00 +23°C° 0 mm 1 mps 705 mmHg 88%

    21 October, Monday

    Time Temperature Precipitation Wind Pressure Humidity
    00:00 +23°C° 0 mm 1 mps 705 mmHg 88%
    01:00 +22°C° 0 mm 1 mps 705 mmHg 89%
    02:00 +22°C° 0 mm 1 mps 705 mmHg 89%
    03:00 +22°C° 0 mm 1 mps 705 mmHg 89%
    04:00 +22°C° 0 mm 1 mps 704 mmHg 89%
    05:00 +23°C° 0 mm 1 mps 705 mmHg 88%
    06:00 +23°C° 0 mm 1 mps 705 mmHg 86%
    07:00 +23°C° 0 mm 1 mps 706 mmHg 85%
    08:00 +25°C° 0 mm 1 mps 706 mmHg 77%
    09:00 +27°C° 0 mm 1 mps 707 mmHg 69%
    10:00 +29°C° 0 mm 2 mps 707 mmHg 60%
    11:00 +29°C° 0.5 mm 2 mps 707 mmHg 63%
    12:00 +29°C° 0.5 mm 2 mps 706 mmHg 65%
    13:00 +29°C° 0.5 mm 2 mps 706 mmHg 67%
    14:00 +28°C° 0.8 mm 2 mps 705 mmHg 68%
    15:00 +28°C° 0.8 mm 2 mps 705 mmHg 69%
    16:00 +28°C° 0.8 mm 2 mps 705 mmHg 71%
    17:00 +26°C° 0 mm 1 mps 705 mmHg 75%
    18:00 +25°C° 0 mm 1 mps 705 mmHg 79%
    19:00 +24°C° 0 mm 1 mps 705 mmHg 84%
    20:00 +24°C° 0 mm 1 mps 705 mmHg 85%
    21:00 +23°C° 0 mm 1 mps 705 mmHg 86%
    22:00 +23°C° 0 mm 1 mps 705 mmHg 87%
    23:00 +23°C° 0 mm 1 mps 705 mmHg 87%

    22 October, Tuesday

    Time Temperature Precipitation Wind Pressure Humidity
    00:00 +22°C° 0 mm 1 mps 705 mmHg 87%
    01:00 +22°C° 0 mm 1 mps 705 mmHg 87%
    02:00 +22°C° 0 mm 1 mps 704 mmHg 87%
    03:00 +22°C° 0 mm 1 mps 704 mmHg 87%
    04:00 +22°C° 0 mm 1 mps 704 mmHg 87%
    05:00 +22°C° 0 mm 1 mps 704 mmHg 87%
    06:00 +23°C° 0 mm 1 mps 705 mmHg 87%
    07:00 +23°C° 0 mm 1 mps 705 mmHg 86%
    08:00 +25°C° 0 mm 1 mps 706 mmHg 78%
    09:00 +27°C° 0 mm 1 mps 706 mmHg 71%
    10:00 +29°C° 0 mm 1 mps 707 mmHg 63%
    11:00 +29°C° 0.2 mm 1 mps 706 mmHg 63%
    12:00 +29°C° 0.2 mm 1 mps 705 mmHg 64%
    13:00 +29°C° 0.2 mm 1 mps 705 mmHg 65%
    14:00 +29°C° 0.4 mm 1 mps 704 mmHg 68%
    15:00 +28°C° 0.4 mm 1 mps 704 mmHg 71%
    16:00 +27°C° 0.4 mm 1 mps 704 mmHg 74%
    17:00 +26°C° 0.2 mm 1 mps 704 mmHg 79%
    18:00 +25°C° 0.2 mm 1 mps 704 mmHg 84%
    19:00 +24°C° 0.2 mm 1 mps 704 mmHg 89%
    20:00 +23°C° 0.1 mm 1 mps 704 mmHg 90%
    21:00 +23°C° 0.1 mm 1 mps 705 mmHg 91%
    22:00 +23°C° 0.1 mm 1 mps 705 mmHg 91%
    23:00 +23°C° 0.1 mm 1 mps 704 mmHg 91%

    23 October, Wednesday

    Time Temperature Precipitation Wind Pressure Humidity
    00:00 +23°C° 0.1 mm 1 mps 704 mmHg 91%
    01:00 +23°C° 0.1 mm 1 mps 704 mmHg 92%
    02:00 +23°C° 0 mm 1 mps 704 mmHg 92%
    03:00 +22°C° 0 mm 1 mps 703 mmHg 92%
    04:00 +22°C° 0 mm 1 mps 703 mmHg 92%
    05:00 +23°C° 0 mm 1 mps 703 mmHg 91%
    06:00 +23°C° 0 mm 1 mps 704 mmHg 90%
    07:00 +23°C° 0 mm 1 mps 704 mmHg 89%
    08:00 +25°C° 0 mm 1 mps 705 mmHg 81%
    09:00 +27°C° 0 mm 1 mps 705 mmHg 72%
    10:00 +29°C° 0 mm 1 mps 706 mmHg 64%
    11:00 +28°C° 0.5 mm 2 mps 705 mmHg 66%
    12:00 +28°C° 0.5 mm 2 mps 705 mmHg 68%
    13:00 +28°C° 0.5 mm 3 mps 704 mmHg 70%
    14:00 +28°C° 0.9 mm 2 mps 704 mmHg 72%
    15:00 +27°C° 0.9 mm 2 mps 704 mmHg 75%
    16:00 +27°C° 0.9 mm 1 mps 703 mmHg 77%
    17:00 +25°C° 0.2 mm 2 mps 704 mmHg 81%
    18:00 +24°C° 0.2 mm 2 mps 704 mmHg 86%
    19:00 +23°C° 0.2 mm 2 mps 704 mmHg 90%
    20:00 +23°C° 0.1 mm 2 mps 704 mmHg 90%
    21:00 +23°C° 0.1 mm 2 mps 704 mmHg 90%
    22:00 +21°C° 0.1 mm 2 mps 704 mmHg 90%
    23:00 +21°C° 0 mm 2 mps 704 mmHg 90%
    Show more